Regional Weather Roundup
Issued by NWS

Home | Current Version | Previous Version | Text Only | Print | Product List | Glossary Off
Versions: 1 2 3 4 5 6 7 8 9 10 11 12 13 14 15 16 17 18 19 20 21 22 23 24 25 26 27 28 29 30 31 32 33 34 35 36 37 38 39 40 41 42 43 44 45 46 47 48 49 50

000
ASUS43 KOAX 112110
RWRNE

WEATHER ROUNDUP FOR NEBRASKA
NATIONAL WEATHER SERVICE OMAHA NE
400 PM CDT FRI JUL 11 2014

NOTES: SATELLITE DATA IS BEING USED TO AUGMENT CLOUD COVER ABOVE
       12000 FEET.
       "FAIR" INDICATES FEW OR NO CLOUDS BELOW 12,000 FEET WITH NO
       SIGNIFICANT WEATHER AND/OR OBSTRUCTIONS TO VISIBILITY.

  * THESE STATIONS DO NOT REPORT WEATHER SUCH AS RAIN...SNOW OR FOG.

NEZ001>004-019>022-054>056-112200-
NEBRASKA PANHANDLE

CITY           SKY/WX    TMP DP  RH WIND       PRES   REMARKS
SCOTTSBLUFF    SUNNY     89  57  33 SE8G17    30.04F
ALLIANCE       MOSUNNY   86  63  45 VRB5      30.04F
CHADRON        MOSUNNY   88  63  43 E13       30.01S
KIMBALL        MOSUNNY   87  58  37 E8G16     30.08F
SIDNEY         MOSUNNY   90  63  40 E12G23    30.07S HX  91
$$

NEZ057>060-069>072-079>082-112200-
SOUTHWEST NEBRASKA

CITY           SKY/WX    TMP DP  RH WIND       PRES   REMARKS
NORTH PLATTE   MOSUNNY   89  67  47 E7        29.99S HX  92
IMPERIAL       SUNNY     92  68  45 NE18      29.98F HX  96
LEXINGTON      SUNNY     84  74  71 E9        29.98F HX  91
MCCOOK         SUNNY     96  66  37 E12       29.93F HX  99
OGALLALA       MOSUNNY   86  66  51 SE12      30.02F
$$

NEZ005>010-023>029-035>040-094-112200-
NORTH CENTRAL NEBRASKA

CITY           SKY/WX    TMP DP  RH WIND       PRES   REMARKS
VALENTINE      CLOUDY    87  67  51 NE10      30.01R HX  90
AINSWORTH      CLOUDY    82  68  63 NE3       30.02R
BROKEN BOW     MOSUNNY   90  64  42 CALM      29.99S HX  91
O`NEILL        CLOUDY    84  70  61 E3        30.00S
ORD            PTSUNNY   82  72  71 E8        29.97F
THEDFORD       CLOUDY    87  64  46 N5        30.02S
$$

NEZ041-046>049-061>064-073>077-083>087-112200-
SOUTH CENTRAL NEBRASKA

CITY           SKY/WX    TMP DP  RH WIND       PRES   REMARKS
GRAND ISLAND   CLOUDY    83  72  69 S6        29.98S
AURORA         CLOUDY    84  74  72 S7        29.97F HX  91
HASTINGS       PTSUNNY   88  67  49 S9        29.97S HX  91
HEBRON         MOSUNNY   93  68  43 S13       29.96S HX  97
HOLDREGE       MOSUNNY   93  63  36 S8        29.96F HX  94
KEARNEY *      PTSUNNY   88  70  55 E6        29.98F HX  92
YORK           CLOUDY    84  75  74 SW5       29.98R HX  92
$$

NEZ011>018-030>034-042>045-112200-
NORTHEAST NEBRASKA

CITY           SKY/WX    TMP DP  RH WIND       PRES   REMARKS
NORFOLK        CLOUDY    78  71  79 CALM      29.99R
ALBION         CLOUDY    78  70  77 S5        29.99S
BLAIR          CLOUDY    78  70  75 E5        29.98F
FREMONT        CLOUDY    82  72  72 CALM      29.99R
TEKAMAH        CLOUDY    79  71  76 SE3       29.99R
WAYNE          CLOUDY    79  73  82 SW3       30.00R
$$

NEZ050>053-065>068-078-088>093-112200-
SOUTHEAST NEBRASKA

CITY           SKY/WX    TMP DP  RH WIND       PRES   REMARKS
LINCOLN        CLOUDY    87  72  60 S14G20    29.97S HX  93
OMAHA EPPLEY   CLOUDY    80  70  71 S7        29.98R
BEATRICE       MOSUNNY   89  70  53 S15G21    29.96F HX  93
FALLS CITY     CLOUDY    91  75  59 S12G18    29.98R HX 101
NEBRASKA CITY  CLOUDY    84  71  65 S8        29.97F
PLATTSMOUTH    CLOUDY    83  72  69 SE3       29.99R
$$

NEZ044-045-051>053-067-112200-
OMAHA AREA

CITY           SKY/WX    TMP DP  RH WIND       PRES   REMARKS
OMAHA EPPLEY   CLOUDY    80  70  71 S7        29.98R
BLAIR          CLOUDY    78  70  75 E5        29.98F
FREMONT        CLOUDY    82  72  72 CALM      29.99R
MILLARD        CLOUDY    82  73  74 SE3       29.97S
OFFUTT AFB     CLOUDY    82  76  82 SE16      29.96F
PLATTSMOUTH    CLOUDY    83  72  69 SE3       29.99R
WAHOO          FAIR      84  72  66 S7        29.97S HX  90
$$


USA.gov is the U.S. government's official web portal to all federal, state and local government web resources and services.